Regional Weather Roundup
Issued by NWS

Home | Current Version | Previous Version | Graphics & Text | Print | Product List | Glossary On
Versions: 1 2 3 4 5 6 7 8 9 10 11 12 13 14 15 16 17 18 19 20 21 22 23 24 25 26 27 28 29 30 31 32 33 34 35 36 37 38 39 40 41 42 43 44 45 46 47 48 49 50
000
ASUS45 KTFX 231410
RWRMT
MONTANA REGIONAL WEATHER ROUNDUP
NATIONAL WEATHER SERVICE GREAT FALLS MT
800 AM MDT MON APR 23 2018

NOTE: "FAIR" INDICATES FEW OR NO CLOUDS BELOW 12000 FEET WITH NO
SIGNIFICANT WEATHER AND/OR OBSTRUCTIONS TO VISIBILITY.

MTZ001>007-043-231500-
WEST OF THE DIVIDE

CITY           SKY/WX    TMP DP  RH WIND       PRES   REMARKS
KALISPELL      PTSUNNY   42  25  50 CALM      30.32R
MISSOULA       FAIR      36  25  64 CALM      30.31R
BUTTE          LGT SNOW  31  28  89 W12       30.24R VSB 3/4 WCI  22
MULLAN PASS    CLOUDY    32  19  58 VRB3      30.26R
ANACONDA         N/A     30  30 100 N12       30.29R WCI  21
DEER LODGE       N/A     34  30  86 NW9       30.33R WCI  26
HAMILTON         N/A     34  25  69 MISG      30.28R
RONAN            N/A     36  28  75 CALM      30.33R
$$

MTZ008-052>055-231500-
SOUTHWEST MONTANA

CITY           SKY/WX    TMP DP  RH WIND       PRES   REMARKS
BOZEMAN        LGT RAIN  38  35  89 N13       30.21R FOG     WCI  30
DILLON         LGT SNOW  32  32 100 N12       30.19R FOG     WCI  23
ENNIS          SNOW      32  32 100 N20G26    30.20R VSB 1/2 WCI  20
W YELLOWSTONE  LGT SNOW  32  32 100 W5        30.10R
THREE FORKS      N/A     38  34  85 N12       30.20R WCI  30
TWIN BRIDGES     N/A     34  29  82 N20       30.15R WCI  23
$$

MTZ009-010-012-014-046-048-049-054-231500-
EAST SLOPES AND CENTRAL MONTANA

CITY           SKY/WX    TMP DP  RH WIND       PRES   REMARKS
CUT BANK       FAIR      35  28  75 NW8       30.38R WCI  29
GREAT FALLS    CLOUDY    37  27  67 NW8       30.34R WCI  31
HELENA         CLOUDY    36  32  85 NW14      30.32R WCI  27
CHOTEAU          N/A     36  25  64 N12       30.38R WCI  27
WHITE SULPHUR  FOG       32  32 100 N15G21    30.23R VSB 1   WCI  22
$$

MTZ011-013-016-021-045-047-050-051-231500-
NORTH CENTRAL MONTANA

CITY           SKY/WX    TMP DP  RH WIND       PRES   REMARKS
HAVRE          FAIR      39  31  72 NE7       30.36R
LEWISTOWN      LGT SNOW  32  32 100 W3        30.31R VSB 1
N BAR RANCH    SNOW      32  32 100 N5        30.31R VSB 1/2
CHINOOK          N/A     37  32  81 NW5       30.38R
$$

MTZ017>020-022>027-061-062-231500-
NORTHEAST MONTANA

CITY           SKY/WX    TMP DP  RH WIND       PRES   REMARKS
GLASGOW        CLOUDY    43  33  68 N5        30.31R
GLENDIVE       CLOUDY    45  32  60 NE17      30.25R
JORDAN           N/A     42  33  70 NE13G18   30.30R
MALTA          SUNNY     41  34  75 N10       30.33R
SIDNEY         FAIR      44  33  65 N13       30.27S
WOLF POINT     CLOUDY    44  32  62 N13       30.30R
PLENTYWOOD       N/A     39  36  87 N9        30.30R
POPLAR           N/A     41  32  70 N5        30.31R
$$

MTZ028>42-056>058-231500-
SOUTHCENTRAL AND SOUTHEAST MONTANA

CITY           SKY/WX    TMP DP  RH WIND       PRES   REMARKS
BAKER          CLOUDY    45  28  51 NE22      30.17R
BILLINGS       LGT RAIN  37  35  92 N24       30.23R WCI  26
LIVINGSTON     LGT SNOW  34  32  92 E22       30.20R VSB 1   WCI  22
MILES CITY     LGT RAIN  47  29  49 NE17      30.18R
BIG TIMBER     FOG       32  32 100 E5        30.26R VSB 0
FORSYTH          N/A     43  36  75 N9        30.21R
LAUREL           N/A     37  36  93 NE22      30.24S FOG     WCI  27
$$

REGIONAL REPORTS...DAKOTAS

CITY           SKY/WX    TMP DP  RH WIND       PRES   REMARKS
WILLISTON      PTSUNNY   43  34  70 NE7       30.28R
MINOT          FAIR      48  34  58 NW10      30.24R
DICKINSON      CLOUDY    47  27  45 NE14      30.19R
BEACH          CLOUDY    45  27  49 NE14      30.25R
CROSBY         CLOUDY    39  37  93 NW9       30.29R
TIOGA          FAIR      41  39  93 N8        30.28R
BISMARCK       FAIR      50  32  50 NE13      30.20S
GRAND FORKS    FAIR      50  38  63 N9        30.19R
FARGO          FAIR      47  39  74 S12       30.19F
BUFFALO SD       N/A     48  35  60 NE17      30.06R
RAPID CITY     FAIR      44  39  82 VRB3      30.09S
$$

REGIONAL REPORTS...WYOMING/IDAHO/WASHINGTON

CITY           SKY/WX    TMP DP  RH WIND       PRES   REMARKS
GILLETTE       PTSUNNY   46  40  79 NE3       30.05R
SHERIDAN       FAIR      46  35  65 NW23      30.12R
BUFFALO WY     FAIR      45  30  55 N28G37    30.07R
CODY           LGT RAIN  37  33  85 N16       30.18R WCI  28
YELLOWSTONE LA   N/A     31  31 100 CALM      30.11F
IDAHO FALLS    FAIR      39  33  79 SW14      30.13R WCI  31
SALMON         CLOUDY    44  32  62 E5        30.19R
BOISE          FAIR      39  26  59 NW7       30.22R
SPOKANE        FAIR      38  25  59 NE6       30.32R
$$

REGIONAL REPORTS...ALBERTA

CITY           SKY/WX    TMP DP  RH WIND       PRES   REMARKS
CALGARY        MOSUNNY   37  23  56 SW5       30.39R
EDMONTON       SUNNY     37  19  48 W9        30.35R WCI  31
FORT MCMURRAY  SUNNY     34  27  75 VRB2      30.26S
HIGH LEVEL     MOSUNNY   27  25  93 S2        30.23R
LETHBRIDGE     MOSUNNY   36  27  69 W5        30.41R
LLOYDMINSTER   MOSUNNY   36  27  69 W10       30.33R WCI  28
MEDICINE HAT   PTSUNNY   34  30  86 SW2       30.40R
PEACE RIVER    PTSUNNY   30  21  69 SW8       30.29R WCI  23
PINCHER CREEK  SUNNY     32  23  69 W6        30.40R WCI  26
WATERTON GATE    N/A     32  25  74 NE1         N/A
$$

REGIONAL REPORTS...SASKATCHEWAN

CITY           SKY/WX    TMP DP  RH WIND       PRES   REMARKS
CORONACH         N/A     37  32  81 NW9         N/A  WCI  31
CYPRESS HILLS    N/A     32  25  74 N7          N/A  WCI  26
ESTEVAN        CLOUDY    39  34  81 NW9       30.27R
MOOSE JAW        N/A     41  34  75 NW14        N/A
PRINCE ALBERT  MOSUNNY   39  30  70 NW16      30.26R WCI  30
REGINA         PTSUNNY   39  36  87 NW12      30.29R WCI  32
ROCKGLEN         N/A     37  30  75 N9          N/A  WCI  31
SASKATOON      PTSUNNY   37  32  81 NW13      30.32R WCI  29
SWIFT CURRENT  PTSUNNY   34  30  86 NW8       30.35R WCI  27
VAL MARIE        N/A     37  30  75 N12         N/A  WCI  30
$$



USA.gov is the U.S. government's official web portal to all federal, state and local government web resources and services.